Year,Month,Day,Hour,Minute,Value (Times are PST for insolation in W/m^2)
2007,08,02,00,00,0.00
2007,08,02,00,01,0.00
2007,08,02,00,02,0.00
2007,08,02,00,03,0.00
2007,08,02,00,04,0.00
2007,08,02,00,05,0.00
2007,08,02,00,06,0.00
2007,08,02,00,07,0.00
2007,08,02,00,08,0.00
2007,08,02,00,09,0.00
2007,08,02,00,10,0.00
2007,08,02,00,11,0.00
2007,08,02,00,12,0.00
2007,08,02,01,02,0.00
2007,08,02,01,03,0.00
2007,08,02,01,04,0.00
2007,08,02,01,05,0.00
2007,08,02,01,06,0.00
2007,08,02,01,07,0.00
2007,08,02,01,08,0.00
2007,08,02,01,09,0.00
2007,08,02,01,10,0.00
2007,08,02,01,11,0.00
2007,08,02,01,12,0.00
2007,08,02,01,13,0.00
2007,08,02,01,14,0.00
2007,08,02,01,15,0.00
2007,08,02,01,16,0.00
2007,08,02,01,17,0.00
2007,08,02,01,18,0.00
2007,08,02,01,19,0.00
2007,08,02,01,20,0.00
2007,08,02,01,21,0.00
2007,08,02,01,22,0.00
2007,08,02,01,23,0.00
2007,08,02,01,24,0.00
2007,08,02,01,25,0.00
2007,08,02,01,26,0.00
2007,08,02,01,27,0.00
2007,08,02,01,28,0.00
2007,08,02,01,29,0.00
2007,08,02,01,30,0.00
2007,08,02,01,31,0.00
2007,08,02,01,32,0.00
2007,08,02,01,33,0.00
2007,08,02,01,34,0.00
2007,08,02,01,35,0.00
2007,08,02,01,36,0.00
2007,08,02,01,37,0.00
2007,08,02,01,38,0.00
2007,08,02,01,39,0.00
2007,08,02,01,40,0.00
2007,08,02,01,41,0.00
2007,08,02,01,42,0.00
2007,08,02,01,43,0.00
2007,08,02,01,44,0.00
2007,08,02,01,45,0.00
2007,08,02,01,46,0.00
2007,08,02,01,47,0.00
2007,08,02,01,48,0.00
2007,08,02,01,49,0.00
2007,08,02,01,50,0.00
2007,08,02,01,51,0.00
2007,08,02,01,52,0.00
2007,08,02,01,53,0.00
2007,08,02,01,54,0.00
2007,08,02,01,55,0.00
2007,08,02,01,56,0.00
2007,08,02,01,57,0.00
2007,08,02,01,58,0.00
2007,08,02,01,59,0.00
2007,08,02,02,00,0.00
2007,08,02,02,01,0.00
2007,08,02,02,02,0.00
2007,08,02,02,03,0.00
2007,08,02,02,04,0.00
2007,08,02,02,05,0.00
2007,08,02,02,06,0.00
2007,08,02,02,07,0.00
2007,08,02,02,08,0.00
2007,08,02,02,09,0.00
2007,08,02,02,10,0.00
2007,08,02,02,11,0.00
2007,08,02,02,12,0.00
2007,08,02,02,13,0.00
2007,08,02,02,14,0.00
2007,08,02,02,15,0.00
2007,08,02,02,16,0.00
2007,08,02,02,17,0.00
2007,08,02,02,18,0.00
2007,08,02,02,19,0.00
2007,08,02,02,20,0.00
2007,08,02,02,21,0.00
2007,08,02,02,22,0.00
2007,08,02,02,23,0.00
2007,08,02,02,24,0.00
2007,08,02,02,25,0.00
2007,08,02,02,26,0.00
2007,08,02,02,27,0.00
2007,08,02,02,28,0.00
2007,08,02,02,29,0.00
2007,08,02,02,30,0.00
2007,08,02,02,31,0.00
2007,08,02,02,32,0.00
2007,08,02,02,33,0.00
2007,08,02,02,34,0.00
2007,08,02,02,35,0.00
2007,08,02,02,36,0.00
2007,08,02,02,37,0.00
2007,08,02,02,38,0.00
2007,08,02,02,39,0.00
2007,08,02,02,40,0.00
2007,08,02,02,41,0.00
2007,08,02,02,42,0.00
2007,08,02,02,43,0.00
2007,08,02,02,44,0.00
2007,08,02,02,45,0.00
2007,08,02,02,46,0.00
2007,08,02,02,47,0.00
2007,08,02,02,48,0.00
2007,08,02,02,49,0.00
2007,08,02,02,50,0.00
2007,08,02,02,51,0.00
2007,08,02,02,52,0.00
2007,08,02,02,53,0.00
2007,08,02,02,54,0.00
2007,08,02,02,55,0.00
2007,08,02,02,56,0.00
2007,08,02,02,57,0.00
2007,08,02,02,58,0.00
2007,08,02,02,59,0.00
2007,08,02,03,00,0.00
2007,08,02,03,01,0.00
2007,08,02,03,02,0.00
2007,08,02,03,03,0.00
2007,08,02,03,04,0.00
2007,08,02,03,05,0.00
2007,08,02,03,06,0.00
2007,08,02,03,07,0.00
2007,08,02,03,08,0.00
2007,08,02,03,09,0.00
2007,08,02,03,10,0.00
2007,08,02,03,11,0.00
2007,08,02,03,12,0.00
2007,08,02,03,13,0.00
2007,08,02,03,14,0.00
2007,08,02,03,15,0.00
2007,08,02,03,16,0.00
2007,08,02,03,17,0.00
2007,08,02,03,18,0.00
2007,08,02,03,19,0.00
2007,08,02,03,20,0.00
2007,08,02,03,21,0.00
2007,08,02,03,22,0.00
2007,08,02,03,23,0.00
2007,08,02,03,24,0.00
2007,08,02,03,25,0.00
2007,08,02,03,26,0.00
2007,08,02,03,27,0.00
2007,08,02,03,28,0.00
2007,08,02,03,29,0.00
2007,08,02,03,30,0.00
2007,08,02,03,31,0.00
2007,08,02,03,32,0.00
2007,08,02,03,33,0.00
2007,08,02,03,34,0.00
2007,08,02,03,35,0.00
2007,08,02,03,36,0.00
2007,08,02,03,37,0.00
2007,08,02,03,38,0.00
2007,08,02,03,39,0.00
2007,08,02,03,40,0.00
2007,08,02,03,41,0.00
2007,08,02,03,42,0.00
2007,08,02,03,43,0.00
2007,08,02,03,44,0.00
2007,08,02,03,45,0.00
2007,08,02,03,46,0.00
2007,08,02,03,47,0.00
2007,08,02,03,48,0.00
2007,08,02,03,49,0.00
2007,08,02,03,50,0.00
2007,08,02,03,51,0.00
2007,08,02,03,52,0.00
2007,08,02,03,53,0.00
2007,08,02,03,54,0.00
2007,08,02,03,55,0.00
2007,08,02,03,56,0.00
2007,08,02,03,57,0.00
2007,08,02,03,58,0.00
2007,08,02,03,59,0.00
2007,08,02,04,00,0.00
2007,08,02,04,01,0.00
2007,08,02,04,02,0.00
2007,08,02,04,03,0.00
2007,08,02,04,04,0.00
2007,08,02,04,05,0.00
2007,08,02,04,06,0.00
2007,08,02,04,07,0.00
2007,08,02,04,08,0.00
2007,08,02,04,09,0.00
2007,08,02,04,10,0.00
2007,08,02,04,11,0.00
2007,08,02,04,12,0.00
2007,08,02,04,13,0.00
2007,08,02,04,14,0.00
2007,08,02,04,15,0.00
2007,08,02,04,16,0.00
2007,08,02,04,17,0.00
2007,08,02,04,18,0.00
2007,08,02,04,19,0.00
2007,08,02,04,20,0.00
2007,08,02,04,21,0.00
2007,08,02,04,22,0.00
2007,08,02,04,23,0.00
2007,08,02,04,24,0.00
2007,08,02,04,25,0.00
2007,08,02,04,26,0.00
2007,08,02,04,27,0.00
2007,08,02,04,28,0.00
2007,08,02,04,29,0.00
2007,08,02,04,30,0.00
2007,08,02,04,31,0.00
2007,08,02,04,32,0.00
2007,08,02,04,33,0.00
2007,08,02,04,34,0.00
2007,08,02,04,35,0.00
2007,08,02,04,36,0.00
2007,08,02,04,37,0.00
2007,08,02,04,38,0.00
2007,08,02,04,39,0.00
2007,08,02,04,40,0.00
2007,08,02,04,41,0.00
2007,08,02,04,42,0.00
2007,08,02,04,43,0.00
2007,08,02,04,44,0.00
2007,08,02,04,45,0.00
2007,08,02,04,46,0.00
2007,08,02,04,47,0.00
2007,08,02,04,48,0.00
2007,08,02,04,49,0.00
2007,08,02,04,50,0.00
2007,08,02,04,51,0.00
2007,08,02,04,52,0.00
2007,08,02,04,53,0.00
2007,08,02,04,54,0.00
2007,08,02,04,55,0.00
2007,08,02,04,56,0.00
2007,08,02,04,57,0.00
2007,08,02,04,58,0.00
2007,08,02,04,59,0.00
2007,08,02,05,00,0.00
2007,08,02,05,01,0.00
2007,08,02,05,02,0.00
2007,08,02,05,03,0.00
2007,08,02,05,04,0.00
2007,08,02,05,05,0.00
2007,08,02,05,06,0.00
2007,08,02,05,07,0.00
2007,08,02,05,08,0.00
2007,08,02,05,09,0.00
2007,08,02,05,10,0.00
2007,08,02,05,11,0.00
2007,08,02,05,12,0.00
2007,08,02,05,13,0.00
2007,08,02,05,14,0.00
2007,08,02,05,15,0.00
2007,08,02,05,16,0.00
2007,08,02,05,17,0.00
2007,08,02,05,18,0.00
2007,08,02,05,19,0.00
2007,08,02,05,20,0.00
2007,08,02,05,21,0.00
2007,08,02,05,22,0.00
2007,08,02,05,23,0.00
2007,08,02,05,24,0.00
2007,08,02,05,25,0.00
2007,08,02,05,26,0.00
2007,08,02,05,27,0.00
2007,08,02,05,28,0.00
2007,08,02,05,29,0.00
2007,08,02,05,30,0.00
2007,08,02,05,31,0.00
2007,08,02,05,32,0.00
2007,08,02,05,33,0.00
2007,08,02,05,34,0.00
2007,08,02,05,35,0.00
2007,08,02,05,36,0.00
2007,08,02,05,37,0.00
2007,08,02,05,38,0.00
2007,08,02,05,39,0.00
2007,08,02,05,40,0.00
2007,08,02,05,41,0.00
2007,08,02,05,42,0.00
2007,08,02,05,43,0.00
2007,08,02,05,44,0.00
2007,08,02,05,45,0.00
2007,08,02,05,46,0.00
2007,08,02,05,47,0.00
2007,08,02,05,48,0.00
2007,08,02,05,49,2.50
2007,08,02,05,50,5.00
2007,08,02,05,51,5.00
2007,08,02,05,52,5.00
2007,08,02,05,53,5.00
2007,08,02,05,54,5.00
2007,08,02,05,55,6.00
2007,08,02,05,56,7.00
2007,08,02,05,57,7.00
2007,08,02,05,58,7.00
2007,08,02,05,59,7.00
2007,08,02,06,00,8.00
2007,08,02,06,01,9.00
2007,08,02,06,02,9.00
2007,08,02,06,03,9.00
2007,08,02,06,04,9.00
2007,08,02,06,05,10.00
2007,08,02,06,06,11.00
2007,08,02,06,07,11.00
2007,08,02,06,08,11.00
2007,08,02,06,09,11.00
2007,08,02,06,10,11.50
2007,08,02,06,11,12.00
2007,08,02,06,12,12.00
2007,08,02,06,13,12.00
2007,08,02,06,14,12.00
2007,08,02,06,15,13.10
2007,08,02,06,16,14.00
2007,08,02,06,17,15.00
2007,08,02,06,18,16.00
2007,08,02,06,19,16.00
2007,08,02,06,20,16.00
2007,08,02,06,21,16.00
2007,08,02,06,22,16.00
2007,08,02,06,23,16.00
2007,08,02,06,24,16.00
2007,08,02,06,25,16.00
2007,08,02,06,26,17.00
2007,08,02,06,27,18.00
2007,08,02,06,28,18.00
2007,08,02,06,29,18.00
2007,08,02,06,30,18.00
2007,08,02,06,31,18.50
2007,08,02,06,32,19.00
2007,08,02,06,33,19.00
2007,08,02,06,34,19.00
2007,08,02,06,35,19.00
2007,08,02,06,36,19.00
2007,08,02,06,37,20.00
2007,08,02,06,38,21.00
2007,08,02,06,39,21.00
2007,08,02,06,40,21.00
2007,08,02,06,41,21.00
2007,08,02,06,42,21.00
2007,08,02,06,43,21.00
2007,08,02,06,44,21.00
2007,08,02,06,45,22.10
2007,08,02,06,46,23.00
2007,08,02,06,47,23.00
2007,08,02,06,48,23.00
2007,08,02,06,49,23.00
2007,08,02,06,50,23.00
2007,08,02,06,51,23.00
2007,08,02,06,52,24.10
2007,08,02,06,53,25.50
2007,08,02,06,54,28.00
2007,08,02,06,55,29.00
2007,08,02,06,56,29.00
2007,08,02,06,57,32.50
2007,08,02,06,58,58.10
2007,08,02,06,59,77.00
2007,08,02,07,00,102.50
2007,08,02,07,01,120.50
2007,08,02,07,02,94.50
2007,08,02,07,03,60.00
2007,08,02,07,04,40.70
2007,08,02,07,05,38.50
2007,08,02,07,06,40.90
2007,08,02,07,07,36.50
2007,08,02,07,08,31.50
2007,08,02,07,09,38.90
2007,08,02,07,10,49.10
2007,08,02,07,11,56.80
2007,08,02,07,12,66.20
2007,08,02,07,13,70.00
2007,08,02,07,14,89.50
2007,08,02,07,15,115.10
2007,08,02,07,16,120.00
2007,08,02,07,17,152.10
2007,08,02,07,18,182.00
2007,08,02,07,19,184.60
2007,08,02,07,20,188.10
2007,08,02,07,21,191.00
2007,08,02,07,22,191.00
2007,08,02,07,23,193.70
2007,08,02,07,24,198.00
2007,08,02,07,25,195.70
2007,08,02,07,26,199.80
2007,08,02,07,27,209.50
2007,08,02,07,28,213.50
2007,08,02,07,29,216.20
2007,08,02,07,30,218.00
2007,08,02,07,31,220.50
2007,08,02,07,32,225.20
2007,08,02,07,33,227.00
2007,08,02,07,34,230.50
2007,08,02,07,35,235.10
2007,08,02,07,36,237.60
2007,08,02,07,37,240.10
2007,08,02,07,38,242.50
2007,08,02,07,39,245.00
2007,08,02,07,40,248.20
2007,08,02,07,41,250.50
2007,08,02,07,42,252.00
2007,08,02,07,43,254.10
2007,08,02,07,44,256.60
2007,08,02,07,45,259.00
2007,08,02,07,46,261.10
2007,08,02,07,47,263.00
2007,08,02,07,48,264.00
2007,08,02,07,49,265.60
2007,08,02,07,50,269.00
2007,08,02,07,51,271.50
2007,08,02,07,52,272.00
2007,08,02,07,53,275.20
2007,08,02,07,54,278.50
2007,08,02,07,55,280.10
2007,08,02,07,56,282.00
2007,08,02,07,57,284.00
2007,08,02,07,58,286.60
2007,08,02,07,59,290.00
2007,08,02,08,00,293.00
2007,08,02,08,01,295.60
2007,08,02,08,02,298.00
2007,08,02,08,03,300.50
2007,08,02,08,04,304.00
2007,08,02,08,05,307.10
2007,08,02,08,06,309.60
2007,08,02,08,07,313.00
2007,08,02,08,08,315.50
2007,08,02,08,09,317.00
2007,08,02,08,10,320.00
2007,08,02,08,11,323.60
2007,08,02,08,12,326.00
2007,08,02,08,13,328.50
2007,08,02,08,14,332.00
2007,08,02,08,15,335.00
2007,08,02,08,16,337.00
2007,08,02,08,17,338.00
2007,08,02,08,18,340.50
2007,08,02,08,19,344.50
2007,08,02,08,20,347.00
2007,08,02,08,21,348.00
2007,08,02,08,22,350.50
2007,08,02,08,23,354.10
2007,08,02,08,24,357.00
2007,08,02,08,25,360.50
2007,08,02,08,26,363.10
2007,08,02,08,27,365.60
2007,08,02,08,28,369.00
2007,08,02,08,29,372.00
2007,08,02,08,30,374.50
2007,08,02,08,31,378.20
2007,08,02,08,32,380.50
2007,08,02,08,33,382.00
2007,08,02,08,34,385.00
2007,08,02,08,35,387.50
2007,08,02,08,36,390.00
2007,08,02,08,37,393.00
2007,08,02,08,38,395.50
2007,08,02,08,39,397.00
2007,08,02,08,40,400.30
2007,08,02,08,41,404.60
2007,08,02,08,42,407.00
2007,08,02,08,43,409.00
2007,08,02,08,44,411.60
2007,08,02,08,45,415.10
2007,08,02,08,46,417.50
2007,08,02,08,47,420.00
2007,08,02,08,48,423.00
2007,08,02,08,49,425.50
2007,08,02,08,50,429.00
2007,08,02,08,51,431.50
2007,08,02,08,52,434.00
2007,08,02,08,53,437.60
2007,08,02,08,54,441.10
2007,08,02,08,55,443.00
2007,08,02,08,56,444.50
2007,08,02,08,57,448.20
2007,08,02,08,58,451.10
2007,08,02,08,59,453.50
2007,08,02,09,00,457.00
2007,08,02,09,01,460.10
2007,08,02,09,02,461.50
2007,08,02,09,03,464.20
2007,08,02,09,04,467.10
2007,08,02,09,05,469.50
2007,08,02,09,06,472.10
2007,08,02,09,07,474.00
2007,08,02,09,08,476.50
2007,08,02,09,09,480.00
2007,08,02,09,10,483.50
2007,08,02,09,11,486.00
2007,08,02,09,12,487.00
2007,08,02,09,13,489.80
2007,08,02,09,14,493.10
2007,08,02,09,15,495.50
2007,08,02,09,16,498.00
2007,08,02,09,17,501.10
2007,08,02,09,18,504.50
2007,08,02,09,19,507.00
2007,08,02,09,20,508.00
2007,08,02,09,21,510.60
2007,08,02,09,22,514.00
2007,08,02,09,23,517.00
2007,08,02,09,24,519.50
2007,08,02,09,25,522.00
2007,08,02,09,26,525.00
2007,08,02,09,27,528.50
2007,08,02,09,28,531.00
2007,08,02,09,29,532.50
2007,08,02,09,30,535.00
2007,08,02,09,31,538.00
2007,08,02,09,32,540.50
2007,08,02,09,33,543.10
2007,08,02,09,34,546.00
2007,08,02,09,35,547.50
2007,08,02,09,36,549.00
2007,08,02,09,37,552.00
2007,08,02,09,38,554.50
2007,08,02,09,39,556.10
2007,08,02,09,40,559.00
2007,08,02,09,41,562.00
2007,08,02,09,42,564.50
2007,08,02,09,43,568.10
2007,08,02,09,44,570.50
2007,08,02,09,45,572.00
2007,08,02,09,46,575.00
2007,08,02,09,47,578.50
2007,08,02,09,48,581.00
2007,08,02,09,49,583.50
2007,08,02,09,50,586.00
2007,08,02,09,51,588.00
2007,08,02,09,52,590.60
2007,08,02,09,53,593.00
2007,08,02,09,54,595.00
2007,08,02,09,55,597.50
2007,08,02,09,56,600.00
2007,08,02,09,57,603.00
2007,08,02,09,58,605.00
2007,08,02,09,59,606.50
2007,08,02,10,00,610.00
2007,08,02,10,01,612.50
2007,08,02,10,02,614.00
2007,08,02,10,03,615.00
2007,08,02,10,04,618.00
2007,08,02,10,05,621.50
2007,08,02,10,06,623.00
2007,08,02,10,07,626.00
2007,08,02,10,08,628.50
2007,08,02,10,09,630.00
2007,08,02,10,10,632.10
2007,08,02,10,11,633.00
2007,08,02,10,12,634.50
2007,08,02,10,13,639.00
2007,08,02,10,14,642.50
2007,08,02,10,15,645.00
2007,08,02,10,16,647.00
2007,08,02,10,17,648.50
2007,08,02,10,18,651.00
2007,08,02,10,19,652.00
2007,08,02,10,20,654.00
2007,08,02,10,21,657.60
2007,08,02,10,22,661.00
2007,08,02,10,23,663.50
2007,08,02,10,24,666.10
2007,08,02,10,25,669.50
2007,08,02,10,26,672.00
2007,08,02,10,27,673.00
2007,08,02,10,28,674.00
2007,08,02,10,29,676.00
2007,08,02,10,30,678.50
2007,08,02,10,31,681.00
2007,08,02,10,32,684.10
2007,08,02,10,33,687.50
2007,08,02,10,34,677.50
2007,08,02,10,35,652.00
2007,08,02,10,36,646.00
2007,08,02,10,37,669.00
2007,08,02,10,38,690.00
2007,08,02,10,39,696.00
2007,08,02,10,40,698.00
2007,08,02,10,41,700.50
2007,08,02,10,42,701.00
2007,08,02,10,43,704.00
2007,08,02,10,44,707.50
2007,08,02,10,45,709.00
2007,08,02,10,46,712.00
2007,08,02,10,47,715.50
2007,08,02,10,48,718.00
2007,08,02,10,49,720.00
2007,08,02,10,50,722.50
2007,08,02,10,51,725.00
2007,08,02,10,52,727.50
2007,08,02,10,53,731.00
2007,08,02,10,54,734.00
2007,08,02,10,55,736.50
2007,08,02,10,56,740.00
2007,08,02,10,57,744.50
2007,08,02,10,58,748.00
2007,08,02,10,59,752.50
2007,08,02,11,00,757.60
2007,08,02,11,01,762.50
2007,08,02,11,02,766.00
2007,08,02,11,03,772.50
2007,08,02,11,04,782.50
2007,08,02,11,05,790.50
2007,08,02,11,06,798.50
2007,08,02,11,07,784.00
2007,08,02,11,08,790.00
2007,08,02,11,09,792.00
2007,08,02,11,10,783.00
2007,08,02,11,11,769.00
2007,08,02,11,12,742.00
2007,08,02,11,13,742.00
2007,08,02,11,14,742.00
2007,08,02,11,15,742.00
2007,08,02,11,16,788.50
2007,08,02,11,17,835.00
2007,08,02,11,18,799.00
2007,08,02,11,19,801.50
2007,08,02,11,20,833.00
2007,08,02,11,21,842.00
2007,08,02,11,22,808.00
2007,08,02,11,23,751.00
2007,08,02,11,24,744.00
2007,08,02,11,25,744.00
2007,08,02,11,26,744.00
2007,08,02,11,27,698.00
2007,08,02,11,28,652.00
2007,08,02,11,29,727.00
2007,08,02,11,30,802.00
2007,08,02,11,31,802.00
2007,08,02,11,32,802.00
2007,08,02,11,33,817.50
2007,08,02,11,34,792.00
2007,08,02,11,35,756.30
2007,08,02,11,36,761.00
2007,08,02,11,37,761.00
2007,08,02,11,38,761.00
2007,08,02,11,39,814.50
2007,08,02,11,40,867.50
2007,08,02,11,41,867.00
2007,08,02,11,42,867.00
2007,08,02,11,43,862.50
2007,08,02,11,44,854.50
2007,08,02,11,45,829.00
2007,08,02,11,46,792.00
2007,08,02,11,47,795.90
2007,08,02,11,48,830.50
2007,08,02,11,49,840.90
2007,08,02,11,50,837.50
2007,08,02,11,51,837.50
2007,08,02,11,52,824.00
2007,08,02,11,53,810.00
2007,08,02,11,54,824.20
2007,08,02,11,55,841.50
2007,08,02,11,56,836.00
2007,08,02,11,57,825.00
2007,08,02,11,58,823.50
2007,08,02,11,59,813.00
2007,08,02,12,00,821.50
2007,08,02,12,01,840.00
2007,08,02,12,02,840.00
2007,08,02,12,03,843.00
2007,08,02,12,04,847.50
2007,08,02,12,05,848.00
2007,08,02,12,06,848.00
2007,08,02,12,07,849.00
2007,08,02,12,08,849.00
2007,08,02,12,09,849.00
2007,08,02,12,10,851.00
2007,08,02,12,11,853.50
2007,08,02,12,12,854.00
2007,08,02,12,13,855.00
2007,08,02,12,14,857.00
2007,08,02,12,15,858.00
2007,08,02,12,16,860.50
2007,08,02,12,17,863.00
2007,08,02,12,18,863.00
2007,08,02,12,19,863.00
2007,08,02,12,20,864.00
2007,08,02,12,21,868.50
2007,08,02,12,22,875.50
2007,08,02,12,23,880.00
2007,08,02,12,24,883.60
2007,08,02,12,25,875.50
2007,08,02,12,26,875.50
2007,08,02,12,27,887.00
2007,08,02,12,28,885.00
2007,08,02,12,29,879.50
2007,08,02,12,30,876.00
2007,08,02,12,31,865.50
2007,08,02,12,32,856.00
2007,08,02,12,33,865.50
2007,08,02,12,34,876.00
2007,08,02,12,35,875.50
2007,08,02,12,36,873.00
2007,08,02,12,37,872.00
2007,08,02,12,38,760.50
2007,08,02,12,39,649.00
2007,08,02,12,40,649.00
2007,08,02,12,41,760.50
2007,08,02,12,42,870.00
2007,08,02,12,43,864.50
2007,08,02,12,44,861.00
2007,08,02,12,45,861.00
2007,08,02,12,46,865.50
2007,08,02,12,47,870.00
2007,08,02,12,48,821.50
2007,08,02,12,49,773.00
2007,08,02,12,50,824.00
2007,08,02,12,51,871.50
2007,08,02,12,52,871.00
2007,08,02,12,53,833.50
2007,08,02,12,54,793.00
2007,08,02,12,55,834.00
2007,08,02,12,56,875.00
2007,08,02,12,57,842.00
2007,08,02,12,58,842.00
2007,08,02,12,59,872.50
2007,08,02,13,00,863.00
2007,08,02,13,01,855.00
2007,08,02,13,02,861.00
2007,08,02,13,03,867.50
2007,08,02,13,04,867.00
2007,08,02,13,05,868.50
2007,08,02,13,06,869.00
2007,08,02,13,07,868.00
2007,08,02,13,08,869.00
2007,08,02,13,09,869.00
2007,08,02,13,10,868.00
2007,08,02,13,11,868.00
2007,08,02,13,12,870.00
2007,08,02,13,13,871.00
2007,08,02,13,14,870.00
2007,08,02,13,15,869.00
2007,08,02,13,16,866.50
2007,08,02,13,17,867.50
2007,08,02,13,18,870.00
2007,08,02,13,19,870.00
2007,08,02,13,20,870.00
2007,08,02,13,21,870.00
2007,08,02,13,22,869.00
2007,08,02,13,23,868.00
2007,08,02,13,24,835.50
2007,08,02,13,25,832.00
2007,08,02,13,26,866.50
2007,08,02,13,27,869.50
2007,08,02,13,28,868.50
2007,08,02,13,29,869.00
2007,08,02,13,30,868.00
2007,08,02,13,31,868.00
2007,08,02,13,32,867.50
2007,08,02,13,33,867.00
2007,08,02,13,34,867.00
2007,08,02,13,35,867.00
2007,08,02,13,36,867.00
2007,08,02,13,37,867.00
2007,08,02,13,38,867.00
2007,08,02,13,39,867.00
2007,08,02,13,40,866.00
2007,08,02,13,41,865.00
2007,08,02,13,42,865.00
2007,08,02,13,43,865.00
2007,08,02,13,44,865.00
2007,08,02,13,45,865.00
2007,08,02,13,46,866.00
2007,08,02,13,47,865.00
2007,08,02,13,48,865.00
2007,08,02,13,49,866.00
2007,08,02,13,50,864.00
2007,08,02,13,51,864.00
2007,08,02,13,52,865.00
2007,08,02,13,53,865.00
2007,08,02,13,54,865.00
2007,08,02,13,55,864.00
2007,08,02,13,56,864.00
2007,08,02,13,57,863.00
2007,08,02,13,58,860.50
2007,08,02,13,59,860.00
2007,08,02,14,00,860.50
2007,08,02,14,01,860.50
2007,08,02,14,02,860.50
2007,08,02,14,03,859.50
2007,08,02,14,04,858.00
2007,08,02,14,05,858.00
2007,08,02,14,06,858.00
2007,08,02,14,07,856.00
2007,08,02,14,08,855.00
2007,08,02,14,09,857.00
2007,08,02,14,10,857.00
2007,08,02,14,11,857.00
2007,08,02,14,12,858.00
2007,08,02,14,13,856.00
2007,08,02,14,14,855.00
2007,08,02,14,15,855.00
2007,08,02,14,16,853.50
2007,08,02,14,17,853.00
2007,08,02,14,18,854.50
2007,08,02,14,19,855.00
2007,08,02,14,20,853.50
2007,08,02,14,21,852.00
2007,08,02,14,22,851.00
2007,08,02,14,23,851.00
2007,08,02,14,24,851.00
2007,08,02,14,25,851.00
2007,08,02,14,26,850.00
2007,08,02,14,27,849.00
2007,08,02,14,28,848.00
2007,08,02,14,29,846.50
2007,08,02,14,30,846.50
2007,08,02,14,31,845.50
2007,08,02,14,32,845.00
2007,08,02,14,33,844.00
2007,08,02,14,34,842.00
2007,08,02,14,35,841.00
2007,08,02,14,36,839.00
2007,08,02,14,37,837.50
2007,08,02,14,38,837.50
2007,08,02,14,39,837.50
2007,08,02,14,40,837.00
2007,08,02,14,41,837.00
2007,08,02,14,42,837.00
2007,08,02,14,43,836.00
2007,08,02,14,44,835.00
2007,08,02,14,45,834.00
2007,08,02,14,46,833.00
2007,08,02,14,47,832.00
2007,08,02,14,48,831.00
2007,08,02,14,49,831.00
2007,08,02,14,50,830.50
2007,08,02,14,51,830.00
2007,08,02,14,52,830.00
2007,08,02,14,53,830.00
2007,08,02,14,54,830.00
2007,08,02,14,55,830.00
2007,08,02,14,56,829.00
2007,08,02,14,57,828.00
2007,08,02,14,58,827.00
2007,08,02,14,59,826.00
2007,08,02,15,00,825.00
2007,08,02,15,01,824.00
2007,08,02,15,02,823.50
2007,08,02,15,03,822.00
2007,08,02,15,04,819.00
2007,08,02,15,05,817.00
2007,08,02,15,06,817.00
2007,08,02,15,07,815.50
2007,08,02,15,08,812.00
2007,08,02,15,09,810.00
2007,08,02,15,10,809.50
2007,08,02,15,11,808.00
2007,08,02,15,12,807.00
2007,08,02,15,13,807.00
2007,08,02,15,14,805.00
2007,08,02,15,15,803.00
2007,08,02,15,16,804.00
2007,08,02,15,17,802.50
2007,08,02,15,18,800.00
2007,08,02,15,19,799.00
2007,08,02,15,20,799.00
2007,08,02,15,21,798.00
2007,08,02,15,22,796.00
2007,08,02,15,23,795.50
2007,08,02,15,24,794.00
2007,08,02,15,25,791.00
2007,08,02,15,26,789.00
2007,08,02,15,27,789.00
2007,08,02,15,28,787.50
2007,08,02,15,29,785.00
2007,08,02,15,30,784.00
2007,08,02,15,31,783.00
2007,08,02,15,32,780.50
2007,08,02,15,33,778.00
2007,08,02,15,34,776.00
2007,08,02,15,35,774.00
2007,08,02,15,36,772.50
2007,08,02,15,37,772.00
2007,08,02,15,38,770.00
2007,08,02,15,39,768.00
2007,08,02,15,40,766.50
2007,08,02,15,41,762.00
2007,08,02,15,42,759.00
2007,08,02,15,43,758.50
2007,08,02,15,44,756.00
2007,08,02,15,45,752.50
2007,08,02,15,46,751.50
2007,08,02,15,47,750.50
2007,08,02,15,48,749.00
2007,08,02,15,49,749.00
2007,08,02,15,50,748.00
2007,08,02,15,51,743.50
2007,08,02,15,52,739.00
2007,08,02,15,53,738.00
2007,08,02,15,54,738.00
2007,08,02,15,55,735.50
2007,08,02,15,56,732.00
2007,08,02,15,57,731.00
2007,08,02,15,58,729.50
2007,08,02,15,59,728.50
2007,08,02,16,00,728.50
2007,08,02,16,01,726.00
2007,08,02,16,02,723.00
2007,08,02,16,03,722.00
2007,08,02,16,04,719.50
2007,08,02,16,05,716.00
2007,08,02,16,06,714.50
2007,08,02,16,07,713.00
2007,08,02,16,08,711.00
2007,08,02,16,09,709.00
2007,08,02,16,10,706.50
2007,08,02,16,11,703.00
2007,08,02,16,12,701.00
2007,08,02,16,13,700.50
2007,08,02,16,14,698.00
2007,08,02,16,15,694.50
2007,08,02,16,16,693.00
2007,08,02,16,17,690.00
2007,08,02,16,18,687.00
2007,08,02,16,19,685.50
2007,08,02,16,20,683.00
2007,08,02,16,21,681.00
2007,08,02,16,22,679.50
2007,08,02,16,23,678.00
2007,08,02,16,24,676.00
2007,08,02,16,25,674.00
2007,08,02,16,26,670.50
2007,08,02,16,27,668.00
2007,08,02,16,28,667.00
2007,08,02,16,29,664.50
2007,08,02,16,30,662.00
2007,08,02,16,31,660.00
2007,08,02,16,32,658.00
2007,08,02,16,33,654.50
2007,08,02,16,34,652.00
2007,08,02,16,35,649.50
2007,08,02,16,36,646.00
2007,08,02,16,37,642.50
2007,08,02,16,38,640.00
2007,08,02,16,39,639.00
2007,08,02,16,40,637.00
2007,08,02,16,41,635.50
2007,08,02,16,42,634.00
2007,08,02,16,43,629.50
2007,08,02,16,44,625.00
2007,08,02,16,45,623.00
2007,08,02,16,46,622.00
2007,08,02,16,47,619.50
2007,08,02,16,48,615.00
2007,08,02,16,49,612.50
2007,08,02,16,50,611.00
2007,08,02,16,51,609.00
2007,08,02,16,52,607.00
2007,08,02,16,53,604.50
2007,08,02,16,54,604.00
2007,08,02,16,55,602.00
2007,08,02,16,56,596.50
2007,08,02,16,57,595.00
2007,08,02,16,58,595.00
2007,08,02,16,59,594.00
2007,08,02,17,00,589.50
2007,08,02,17,01,585.00
2007,08,02,17,02,583.50
2007,08,02,17,03,580.00
2007,08,02,17,04,576.50
2007,08,02,17,05,574.00
2007,08,02,17,06,572.00
2007,08,02,17,07,569.50
2007,08,02,17,08,568.00
2007,08,02,17,09,568.00
2007,08,02,17,10,564.50
2007,08,02,17,11,560.00
2007,08,02,17,12,556.50
2007,08,02,17,13,553.00
2007,08,02,17,14,550.00
2007,08,02,17,15,548.00
2007,08,02,17,16,546.50
2007,08,02,17,17,543.00
2007,08,02,17,18,540.50
2007,08,02,17,19,539.00
2007,08,02,17,20,536.00
2007,08,02,17,21,533.50
2007,08,02,17,22,531.00
2007,08,02,17,23,528.00
2007,08,02,17,24,525.50
2007,08,02,17,25,523.00
2007,08,02,17,26,520.50
2007,08,02,17,27,518.00
2007,08,02,17,28,515.00
2007,08,02,17,29,512.50
2007,08,02,17,30,510.00
2007,08,02,17,31,506.00
2007,08,02,17,32,503.50
2007,08,02,17,33,501.00
2007,08,02,17,34,498.00
2007,08,02,17,35,495.50
2007,08,02,17,36,492.00
2007,08,02,17,37,489.50
2007,08,02,17,38,488.00
2007,08,02,17,39,485.00
2007,08,02,17,40,481.50
2007,08,02,17,41,479.00
2007,08,02,17,42,477.00
2007,08,02,17,43,475.50
2007,08,02,17,44,473.00
2007,08,02,17,45,470.00
2007,08,02,17,46,466.50
2007,08,02,17,47,463.00
2007,08,02,17,48,462.00
2007,08,02,17,49,459.50
2007,08,02,17,50,456.00
2007,08,02,17,51,453.50
2007,08,02,17,52,450.10
2007,08,02,17,53,447.00
2007,08,02,17,54,444.50